[[{"header":{"parameterUnit":"m.s-1","parameterCategory":1,"la1":30.2992,"la2":30.254,"lo1":-89.0895,"lo2":-89.0443,"dy":0.0025,"dx":0.0025,"nx":19,"ny":19,"refTime":"2026-04-01T03:00:00:Z","depth":0,"parameterNumber":2,"parameterNumberName":"U-component_of_WINDS"},"data":[0,0,0,-3.9884,-3.9887,-4.0018,-4.0018,-4.0185,-4.0186,0,0,0,0,0,0,0,0,0,0,0,-3.9845,-3.9846,-3.9884,-3.9887,-4.0018,-4.0018,-4.0185,-4.0186,0,0,0,0,0,0,0,0,0,0,0,-3.9844,-3.9845,-3.9847,-3.9887,-4.0018,-4.0018,-4.0184,-4.0086,0,0,0,0,0,0,0,0,0,0,-3.9958,-3.9922,-3.9845,-3.9847,-3.9888,-4.0018,-4.0019,-4.0081,-4.0092,-4.0125,0,-4.0155,0,-4.0173,-4.0198,-4.0198,0,0,0,-3.9887,-3.9913,-3.9949,-3.9847,-3.9889,-4.0017,-3.9959,-4.0087,-4.0099,-4.014,-4.0157,-4.0164,-4.0176,-4.0199,-4.02,-4.0391,-4.0392,0,0,-3.988,-3.9868,-3.994,-3.9957,-3.9937,-3.9955,-3.9963,-4.0095,-4.0113,-4.0158,-4.0168,-4.0179,-4.02,-4.0201,-4.039,-4.0391,0,0,0,-3.9859,-3.9863,-3.9895,-3.995,-3.9973,-3.9958,-3.9968,-4.0107,-4.0119,-4.0169,-4.0181,-4.0201,-4.0203,-4.0389,-4.0391,-4.0421,0,0,0,-3.9854,-3.985,-3.9892,-3.9886,-3.9971,-4.0042,-3.9977,-4.011,-4.0125,-4.018,-4.0201,-4.0204,-4.0388,-4.039,-4.0418,-4.0437,0,0,0,-3.9836,-3.9848,-3.9867,-3.9885,-3.9941,-4.004,-4.0059,-4.0113,-4.0132,-4.0198,-4.0205,-4.0388,-4.039,-4.0416,-4.0433,-4.0482,0,0,0,-3.9813,-3.9893,-3.9868,-3.9962,-3.994,-4.0059,-4.0059,-4.0148,-4.0209,-4.0202,-4.0389,-4.0391,-4.0415,-4.043,-4.0479,-4.0519,-4.0536,0,0,-3.9907,-3.9904,-3.9961,-3.9942,-4.0062,-4.004,-4.0165,-4.0232,-4.025,-4.0343,-4.0348,-4.0419,-4.0432,-4.0481,-4.0637,-4.065,0,0,0,-3.9987,-4.0027,-4.0062,-4.0119,-4.0172,-4.0219,-4.0269,-4.0294,-4.0373,-4.0295,-4.0452,-4.0461,-4.049,-4.0509,-4.052,-4.0545,-4.04,-4.04,-4.04,-4.0102,-4.012,-4.0214,-4.0248,-4.0304,-4.0355,-4.0401,-4.0443,-4.0446,-4.0483,-4.0509,-4.0602,-4.0624,-4.0633,-4.0658,-4.0535,-4.0535,-4.0535,-4.0535,-4.024,-4.0298,-4.0301,-4.0392,-4.0411,-4.0489,-4.0541,-4.054,-4.0615,-4.0583,-4.061,-4.0571,-4.0646,-4.067,-4.0538,-4.0537,-4.0537,-4.0537,-4.0537,-4.0314,-4.0345,-4.0375,-4.046,-4.0523,-4.0556,-4.0627,-4.0642,-4.0658,-4.0684,-4.0713,-4.0712,-4.0712,-4.0698,-4.0698,-4.0698,-4.0699,-4.0699,-4.0699,-4.0379,-4.0411,-4.0469,-4.0533,-4.0572,-4.0625,-4.0677,-4.0716,-4.0762,-4.0768,-4.0768,-4.0765,-4.0652,-4.0621,-4.0704,-4.0703,-4.0702,-4.0702,-4.0702,-4.0507,-4.048,-4.0569,-4.0608,-4.0684,-4.0745,-4.0766,-4.0842,-4.0877,-4.0911,-4.0904,-4.0818,-4.0816,-4.0807,-4.0781,-4.0901,-4.0901,-4.0901,-4.0901,-4.0567,-4.0568,-4.0662,-4.0723,-4.0785,-4.0812,-4.0911,-4.0953,-4.0993,-4.1015,-4.1001,-4.0969,-4.096,-4.0963,-4.0951,-4.0927,-4.1081,-4.1081,-4.1082,-4.0646,-4.0653,-4.0734,-4.0773,-4.0834,-4.0886,-4.0979,-4.1049,-4.1088,-4.1089,-4.1032,-4.1024,-4.0974,-4.0957,-4.0953,-4.0934,-4.0891,0,0]},{"header":{"parameterUnit":"m.s-1","parameterCategory":1,"la1":30.2992,"la2":30.254,"lo1":-89.0895,"lo2":-89.0443,"dy":0.0025,"dx":0.0025,"nx":19,"ny":19,"refTime":"2026-04-01T03:00:00:Z","depth":0,"parameterNumber":3,"parameterNumberName":"V-component_of_WINDS"},"data":[0,0,0,3.2508,3.251,3.2596,3.2596,3.2703,3.2703,0,0,0,0,0,0,0,0,0,0,0,3.2482,3.2482,3.2508,3.251,3.2596,3.2596,3.2702,3.2703,0,0,0,0,0,0,0,0,0,0,0,3.2481,3.2482,3.2483,3.251,3.2596,3.2596,3.2702,3.2638,0,0,0,0,0,0,0,0,0,0,3.2555,3.253,3.2482,3.2483,3.2511,3.2596,3.2596,3.2635,3.2642,3.2663,0,3.2682,0,3.2694,3.271,3.2711,0,0,0,3.251,3.2524,3.2549,3.2483,3.2512,3.2596,3.2557,3.2639,3.2647,3.2672,3.2683,3.2687,3.2696,3.2711,3.2712,3.2833,3.2834,0,0,3.2506,3.2496,3.2543,3.2554,3.2542,3.2554,3.256,3.2644,3.2655,3.2683,3.269,3.2698,3.2712,3.2713,3.2833,3.2833,0,0,0,3.2492,3.2493,3.2515,3.255,3.2565,3.2557,3.2563,3.2651,3.2659,3.2691,3.2699,3.2712,3.2714,3.2832,3.2833,3.2853,0,0,0,3.2489,3.2485,3.2513,3.2508,3.2564,3.261,3.2568,3.2654,3.2663,3.2699,3.2713,3.2715,3.2831,3.2833,3.2851,3.2864,0,0,0,3.2476,3.2483,3.2496,3.2507,3.2544,3.2608,3.2621,3.2656,3.2669,3.2711,3.2715,3.2831,3.2832,3.2849,3.2861,3.2894,0,0,0,3.246,3.251,3.2496,3.2555,3.2543,3.2621,3.2621,3.2678,3.2717,3.2713,3.2832,3.2833,3.2849,3.2859,3.2892,3.2921,3.2932,0,0,3.2518,3.2517,3.2553,3.2542,3.262,3.2608,3.2688,3.2731,3.2743,3.2802,3.2805,3.2852,3.2861,3.2894,3.2996,3.3004,0,0,0,3.2568,3.2594,3.2616,3.2654,3.269,3.2722,3.2754,3.2771,3.2822,3.2772,3.2873,3.2878,3.2898,3.2912,3.292,3.2938,3.2839,3.2839,3.2839,3.2635,3.265,3.2711,3.2737,3.2773,3.2808,3.2839,3.2867,3.2868,3.2892,3.291,3.297,3.2986,3.2992,3.3011,3.2925,3.2926,3.2926,3.2926,3.2723,3.2762,3.2767,3.2827,3.2842,3.2893,3.2929,3.2929,3.2978,3.2957,3.2975,3.2952,3.3001,3.3018,3.2927,3.2927,3.2927,3.2927,3.2927,3.2769,3.2791,3.2812,3.287,3.2913,3.2936,3.2985,3.2996,3.3006,3.3024,3.3045,3.3045,3.3047,3.3034,3.3034,3.3034,3.3034,3.3034,3.3035,3.2809,3.2832,3.2873,3.2917,3.2945,3.2982,3.3018,3.3045,3.3077,3.3082,3.3082,3.3082,3.3003,3.2984,3.3038,3.3037,3.3037,3.3037,3.3036,3.2893,3.2877,3.2939,3.2966,3.3021,3.3064,3.3078,3.3132,3.3156,3.318,3.3177,3.3117,3.3115,3.311,3.3093,3.3173,3.3173,3.3173,3.3173,3.2933,3.2934,3.3002,3.3046,3.3089,3.311,3.318,3.321,3.3237,3.3253,3.3243,3.3223,3.3216,3.3219,3.3211,3.3196,3.33,3.33,3.33,3.2986,3.2993,3.305,3.308,3.3124,3.3161,3.3228,3.3278,3.3305,3.3306,3.3266,3.3261,3.3228,3.3216,3.3215,3.3202,3.3175,0,0]}]]